Alpena, MI

10:14 AM EST on December 17, 2017 (GMT -0500)
Alpena County Regional

Weather History for KAPN - November, 2014

Change the Weather History Date:

Sunday, November 30, 2014

  Actual Average Record
Temperature  
Mean Temperature 36 °F 30 °F  
Max Temperature 47 °F 37 °F 63 °F (1998)
Min Temperature 25 °F 24 °F 3 °F (1958)
Degree Days  
Heating Degree Days 29 35  
Month to date heating degree days 1012 879  
Since 1 July heating degree days 1931 1823  
Moisture  
Dew Point 33 °F    
Average Humidity 82    
Maximum Humidity 100    
Minimum Humidity 63    
Precipitation  
Precipitation 0.00 in 0.07 in 0.52 in (1944)
Month to date precipitation 3.49 2.10  
Year to date precipitation 33.11 26.41  
Snow  
Snow 0.00 in 0.50 in 4.90 in (1944)
Month to date snowfall 15.6 7.7  
Since 1 July snowfall 15.6 8.1  
Snow Depth 6.00 in    
Sea Level Pressure  
Sea Level Pressure 29.77 in    
Wind  
Wind Speed 9 mph (WNW)    
Max Wind Speed 16 mph    
Max Gust Speed 22 mph    
Visibility 8 miles    
Events      
T = Trace of Precipitation, MM = Missing Value Source: NWS Daily Summary

Daily Weather History Graph

Daily Weather History Graph

Search for Another Location

Airport or City:

Trip Planner

Search our weather history database for the weather conditions in past years. The results will help you decide how hot, cold, wet, or windy it might be!

Date:

Astronomy

Nov. 30, 2014 Rise Set
Actual Time 7:51 AM EST 4:54 PM EST
Civil Twilight 7:18 AM EST 5:27 PM EST
Nautical Twilight 6:41 AM EST 6:04 PM EST
Astronomical Twilight 6:06 AM EST 6:39 PM EST
Moon 1:39 PM EST (11/30) 1:03 AM EST (11/30)
Length of Visible Light 10h 09m
Length of Day
9h 02m
Waxing Gibbous, 64% of the Moon is Illuminated
Nov 30
Waxing Gibbous
Dec 6
Full
Dec 14
Last Quarter
Dec 21
New
Dec 28
First Quarter

Hourly Weather History & Observations

Time (EST) Temp. Windchill Dew Point Humidity Pressure Visibility Wind Dir Wind Speed Gust Speed Precip Events Conditions
12:54 AM 41.0 °F 35.2 °F 37.0 °F 86% 29.57 in 10.0 mi SSW 9.2 mph - N/A   Overcast
1:54 AM 41.0 °F 36.4 °F 37.9 °F 89% 29.56 in 10.0 mi South 6.9 mph - N/A   Overcast
2:54 AM 39.0 °F 34.8 °F 37.9 °F 96% 29.57 in 8.0 mi SSE 5.8 mph - N/A   Overcast
3:54 AM 39.9 °F 35.8 °F 39.0 °F 97% 29.55 in 7.0 mi South 5.8 mph - N/A   Overcast
4:54 AM 43.0 °F 39.5 °F 41.0 °F 93% 29.55 in 7.0 mi South 5.8 mph - N/A   Overcast
5:54 AM 46.0 °F 43.9 °F 43.0 °F 89% 29.56 in 8.0 mi SSW 4.6 mph - N/A   Overcast
6:54 AM 46.0 °F 43.9 °F 42.1 °F 86% 29.57 in 10.0 mi SW 4.6 mph - N/A   Overcast
7:54 AM 46.9 °F - 42.1 °F 83% 29.60 in 10.0 mi Variable 5.8 mph - N/A   Overcast
8:54 AM 46.9 °F - 39.9 °F 77% 29.64 in 10.0 mi West 9.2 mph - N/A   Overcast
9:54 AM 46.0 °F 43.9 °F 39.9 °F 79% 29.66 in 10.0 mi Variable 4.6 mph - N/A   Overcast
10:54 AM 42.1 °F 37.7 °F 39.0 °F 89% 29.71 in 6.0 mi NW 6.9 mph - N/A   Overcast
11:05 AM 41.0 °F 35.2 °F 37.9 °F 89% 29.69 in 4.0 mi NW 9.2 mph - N/A   Overcast
11:47 AM 37.9 °F 30.9 °F 37.0 °F 97% 29.70 in 2.5 mi NW 10.4 mph 19.6 mph N/A   Overcast
11:54 AM 37.9 °F 32.1 °F 37.0 °F 97% 29.72 in 2.0 mi NW 8.1 mph - N/A   Overcast
12:23 PM 37.0 °F 32.4 °F 36.0 °F 96% 29.73 in 3.0 mi WNW 5.8 mph - N/A   Overcast
12:54 PM 37.0 °F 30.4 °F 35.1 °F 93% 29.75 in 4.0 mi NW 9.2 mph - N/A   Overcast
1:41 PM 36.0 °F 28.0 °F 34.0 °F 93% 29.75 in 5.0 mi NW 11.5 mph - N/A   Overcast
1:54 PM 36.0 °F 28.5 °F 33.1 °F 89% 29.78 in 7.0 mi NW 10.4 mph - N/A   Overcast
2:06 PM 36.0 °F 29.6 °F 33.1 °F 89% 29.77 in 6.0 mi NW 8.1 mph - N/A   Overcast
2:54 PM 34.0 °F 25.0 °F 32.0 °F 92% 29.81 in 5.0 mi NNW 12.7 mph - N/A   Overcast
3:44 PM 33.1 °F 22.6 °F 30.0 °F 89% 29.83 in 5.0 mi NNW 16.1 mph - N/A   Overcast
3:54 PM 32.0 °F 21.6 °F 28.9 °F 88% 29.86 in 8.0 mi NNW 15.0 mph - N/A   Overcast
4:54 PM 32.0 °F 24.8 °F 28.0 °F 85% 29.90 in 10.0 mi NW 8.1 mph 19.6 mph N/A   Overcast
5:54 PM 30.9 °F 21.7 °F 26.1 °F 82% 29.94 in 10.0 mi NNW 11.5 mph - N/A   Overcast
6:54 PM 30.9 °F 20.2 °F 24.1 °F 76% 29.97 in 10.0 mi NW 15.0 mph 21.9 mph N/A   Overcast
7:54 PM 30.0 °F 19.5 °F 23.0 °F 75% 30.00 in 10.0 mi NW 13.8 mph 21.9 mph N/A   Overcast
8:54 PM 28.0 °F 16.1 °F 21.0 °F 75% 30.04 in 10.0 mi NW 16.1 mph 21.9 mph N/A   Overcast
9:54 PM 26.1 °F 16.8 °F 17.1 °F 69% 30.08 in 10.0 mi WNW 9.2 mph 21.9 mph N/A   Overcast
10:54 PM 26.1 °F 15.0 °F 16.0 °F 66% 30.11 in 10.0 mi WNW 12.7 mph 21.9 mph N/A   Overcast
11:54 PM 25.0 °F 15.5 °F 15.1 °F 66% 30.16 in 10.0 mi NW 9.2 mph - N/A   Overcast